When you browse on this site, cookies collect data to enhance your experience and personalize the content and advertising you see.
Visit our Privacy Policy to learn more. By continuing to use the site, you agree to this use of cookies and data.
  • Em Portugal
  • Lista de países
  • Para 7 dias
  • Temperatura da água
  • Mapas de satélite
  • Mapa do tempo
  • Widgets de tempo
  • user-avatar
    Iniciar Sessão

    Previsão horária em Moiseevka

    Hoje, 16 Fevereiro, Sábado

    Tempo Temperatura Precipitação Vento Pressão Humidade
    00:00 -4°C° 0.2 mm 5 m/s 743 mmHg 93%
    01:00 -2°C° 0.1 mm 5 m/s 743 mmHg 93%
    02:00 -2°C° 0.1 mm 5 m/s 742 mmHg 93%
    03:00 -1°C° 0.1 mm 4 m/s 742 mmHg 93%
    04:00 -1°C° 0.1 mm 4 m/s 742 mmHg 93%
    05:00 -1°C° 0.1 mm 4 m/s 742 mmHg 93%
    06:00 -2°C° 0.1 mm 4 m/s 742 mmHg 93%
    07:00 -2°C° 0 mm 4 m/s 742 mmHg 93%
    08:00 -2°C° 0 mm 4 m/s 742 mmHg 93%
    09:00 -2°C° 0 mm 4 m/s 742 mmHg 92%
    10:00 -1°C° 0 mm 3 m/s 743 mmHg 95%
    11:00 -1°C° 0 mm 3 m/s 743 mmHg 97%
    12:00 0°C° 0 mm 3 m/s 743 mmHg 99%
    13:00 0°C° 0.1 mm 3 m/s 743 mmHg 99%
    14:00 0°C° 0.1 mm 3 m/s 743 mmHg 98%
    15:00 0°C° 0.1 mm 3 m/s 743 mmHg 98%
    16:00 -1°C° 0.1 mm 2 m/s 743 mmHg 97%
    17:00 -1°C° 0.1 mm 2 m/s 743 mmHg 97%
    18:00 -2°C° 0.1 mm 2 m/s 743 mmHg 96%
    19:00 -2°C° 0 mm 2 m/s 744 mmHg 96%
    20:00 -2°C° 0 mm 2 m/s 744 mmHg 96%
    21:00 -2°C° 0 mm 2 m/s 744 mmHg 96%
    22:00 -1°C° 0 mm 2 m/s 744 mmHg 96%
    23:00 -1°C° 0 mm 3 m/s 744 mmHg 95%

    Amanhã, 17 Fevereiro, Domingo

    Tempo Temperatura Precipitação Vento Pressão Humidade
    00:00 -1°C° 0 mm 3 m/s 744 mmHg 95%
    01:00 -2°C° 0 mm 3 m/s 744 mmHg 95%
    02:00 -4°C° 0 mm 3 m/s 744 mmHg 96%
    03:00 -5°C° 0 mm 3 m/s 745 mmHg 96%
    04:00 -6°C° 0 mm 3 m/s 744 mmHg 96%
    05:00 -5°C° 0 mm 2 m/s 744 mmHg 97%
    06:00 -5°C° 0 mm 2 m/s 744 mmHg 97%
    07:00 -6°C° 0 mm 3 m/s 744 mmHg 96%
    08:00 -6°C° 0 mm 3 m/s 743 mmHg 96%
    09:00 -6°C° 0 mm 3 m/s 743 mmHg 95%
    10:00 -7°C° 0 mm 4 m/s 742 mmHg 94%
    11:00 -7°C° 0 mm 4 m/s 742 mmHg 93%
    12:00 -6°C° 0 mm 5 m/s 741 mmHg 92%
    13:00 -6°C° 0 mm 5 m/s 740 mmHg 92%
    14:00 -6°C° 0 mm 5 m/s 739 mmHg 91%
    15:00 -7°C° 0 mm 5 m/s 738 mmHg 90%
    16:00 -6°C° 0.1 mm 5 m/s 737 mmHg 91%
    17:00 -6°C° 0.1 mm 5 m/s 736 mmHg 92%
    18:00 -6°C° 0.1 mm 6 m/s 736 mmHg 93%
    19:00 -5°C° 0.4 mm 5 m/s 735 mmHg 93%
    20:00 -5°C° 0.4 mm 5 m/s 734 mmHg 93%
    21:00 -4°C° 0.4 mm 5 m/s 734 mmHg 94%
    22:00 -5°C° 0.1 mm 5 m/s 733 mmHg 92%
    23:00 -4°C° 0.1 mm 4 m/s 733 mmHg 90%

    Depois de amanhã, 18 Fevereiro, Segunda-feira

    Tempo Temperatura Precipitação Vento Pressão Humidade
    00:00 -4°C° 0.1 mm 4 m/s 733 mmHg 88%
    01:00 -5°C° 0 mm 4 m/s 732 mmHg 90%
    02:00 -7°C° 0 mm 4 m/s 732 mmHg 91%
    03:00 -8°C° 0 mm 4 m/s 732 mmHg 93%
    04:00 -8°C° 0 mm 3 m/s 732 mmHg 94%
    05:00 -9°C° 0 mm 3 m/s 732 mmHg 95%
    06:00 -8°C° 0 mm 2 m/s 732 mmHg 96%
    07:00 -8°C° 0.2 mm 3 m/s 732 mmHg 95%
    08:00 -6°C° 0.2 mm 3 m/s 732 mmHg 95%
    09:00 -5°C° 0.2 mm 3 m/s 732 mmHg 94%
    10:00 -4°C° 0.2 mm 3 m/s 733 mmHg 93%
    11:00 -3°C° 0.2 mm 4 m/s 733 mmHg 92%
    12:00 -3°C° 0.2 mm 4 m/s 734 mmHg 91%
    13:00 -4°C° 0.1 mm 5 m/s 734 mmHg 89%
    14:00 -4°C° 0.1 mm 6 m/s 735 mmHg 88%
    15:00 -5°C° 0.1 mm 6 m/s 736 mmHg 86%
    16:00 -5°C° 0.1 mm 6 m/s 737 mmHg 87%
    17:00 -5°C° 0.1 mm 6 m/s 738 mmHg 88%
    18:00 -6°C° 0.1 mm 7 m/s 739 mmHg 89%
    19:00 -7°C° 0.1 mm 8 m/s 740 mmHg 87%
    20:00 -8°C° 0.1 mm 8 m/s 741 mmHg 85%
    21:00 -9°C° 0.1 mm 9 m/s 742 mmHg 83%
    22:00 -10°C° 0 mm 9 m/s 743 mmHg 83%
    23:00 -11°C° 0 mm 9 m/s 744 mmHg 83%

    19 Fevereiro, Terça-feira

    Tempo Temperatura Precipitação Vento Pressão Humidade
    00:00 -12°C° 0 mm 8 m/s 745 mmHg 83%
    01:00 -13°C° 0 mm 8 m/s 746 mmHg 82%
    02:00 -15°C° 0 mm 8 m/s 747 mmHg 81%
    03:00 -17°C° 0 mm 8 m/s 749 mmHg 81%
    04:00 -17°C° 0 mm 7 m/s 750 mmHg 81%
    05:00 -17°C° 0 mm 6 m/s 751 mmHg 81%
    06:00 -18°C° 0 mm 6 m/s 752 mmHg 81%
    07:00 -18°C° 0 mm 5 m/s 753 mmHg 83%
    08:00 -18°C° 0 mm 5 m/s 753 mmHg 84%
    09:00 -16°C° 0 mm 4 m/s 754 mmHg 85%
    10:00 -15°C° 0 mm 4 m/s 754 mmHg 86%
    11:00 -14°C° 0 mm 4 m/s 754 mmHg 86%
    12:00 -13°C° 0 mm 3 m/s 754 mmHg 87%
    13:00 -12°C° 0 mm 4 m/s 754 mmHg 86%
    14:00 -11°C° 0 mm 4 m/s 754 mmHg 85%
    15:00 -11°C° 0 mm 4 m/s 753 mmHg 84%
    16:00 -10°C° 0.1 mm 4 m/s 753 mmHg 85%
    17:00 -9°C° 0.1 mm 4 m/s 752 mmHg 85%
    18:00 -10°C° 0.1 mm 5 m/s 752 mmHg 85%
    19:00 -10°C° 0 mm 5 m/s 752 mmHg 85%
    20:00 -10°C° 0 mm 5 m/s 752 mmHg 84%
    21:00 -9°C° 0 mm 4 m/s 751 mmHg 83%
    22:00 -10°C° 0 mm 5 m/s 751 mmHg 84%
    23:00 -11°C° 0 mm 5 m/s 751 mmHg 85%

    20 Fevereiro, Quarta-feira

    Tempo Temperatura Precipitação Vento Pressão Humidade
    00:00 -11°C° 0 mm 5 m/s 751 mmHg 86%
    01:00 -11°C° 0 mm 5 m/s 751 mmHg 87%
    02:00 -12°C° 0 mm 5 m/s 750 mmHg 88%
    03:00 -12°C° 0 mm 5 m/s 750 mmHg 89%
    04:00 -12°C° 0 mm 5 m/s 750 mmHg 88%
    05:00 -12°C° 0 mm 5 m/s 750 mmHg 88%
    06:00 -11°C° 0 mm 4 m/s 750 mmHg 88%
    07:00 -11°C° 0 mm 5 m/s 750 mmHg 86%
    08:00 -10°C° 0 mm 5 m/s 750 mmHg 85%
    09:00 -10°C° 0 mm 5 m/s 750 mmHg 84%
    10:00 -8°C° 0 mm 5 m/s 750 mmHg 83%
    11:00 -7°C° 0 mm 5 m/s 749 mmHg 82%
    12:00 -8°C° 0 mm 6 m/s 749 mmHg 81%
    13:00 -8°C° 0 mm 6 m/s 749 mmHg 81%
    14:00 -6°C° 0 mm 5 m/s 749 mmHg 81%
    15:00 -6°C° 0 mm 5 m/s 748 mmHg 82%
    16:00 -8°C° 0 mm 6 m/s 748 mmHg 82%
    17:00 -9°C° 0 mm 6 m/s 748 mmHg 82%
    18:00 -9°C° 0 mm 6 m/s 748 mmHg 82%
    19:00 -10°C° 0 mm 6 m/s 747 mmHg 83%
    20:00 -10°C° 0 mm 6 m/s 747 mmHg 85%
    21:00 -11°C° 0 mm 6 m/s 747 mmHg 86%
    22:00 -12°C° 0 mm 7 m/s 746 mmHg 87%
    23:00 -11°C° 0 mm 7 m/s 745 mmHg 89%

    21 Fevereiro, Quinta-feira

    Tempo Temperatura Precipitação Vento Pressão Humidade
    00:00 -11°C° 0 mm 7 m/s 745 mmHg 90%
    01:00 -11°C° 0.2 mm 7 m/s 744 mmHg 90%
    02:00 -9°C° 0.2 mm 7 m/s 744 mmHg 91%
    03:00 -9°C° 0.2 mm 7 m/s 744 mmHg 91%
    04:00 -8°C° 0.1 mm 7 m/s 743 mmHg 90%
    05:00 -8°C° 0.1 mm 7 m/s 743 mmHg 90%
    06:00 -7°C° 0.1 mm 7 m/s 743 mmHg 90%
    07:00 -7°C° 0.1 mm 7 m/s 743 mmHg 90%
    08:00 -7°C° 0.1 mm 7 m/s 743 mmHg 91%
    09:00 -6°C° 0.1 mm 7 m/s 743 mmHg 91%
    10:00 -4°C° 0.2 mm 7 m/s 742 mmHg 91%
    11:00 -4°C° 0.2 mm 7 m/s 742 mmHg 90%
    12:00 -3°C° 0.2 mm 7 m/s 742 mmHg 90%
    13:00 -3°C° 0.2 mm 7 m/s 742 mmHg 90%
    14:00 -2°C° 0.2 mm 7 m/s 741 mmHg 90%
    15:00 -2°C° 0.2 mm 7 m/s 741 mmHg 89%
    16:00 -2°C° 0.2 mm 6 m/s 741 mmHg 89%
    17:00 -3°C° 0.2 mm 6 m/s 741 mmHg 89%
    18:00 -2°C° 0.2 mm 5 m/s 741 mmHg 89%
    19:00 -4°C° 0 mm 5 m/s 741 mmHg 91%
    20:00 -4°C° 0 mm 4 m/s 741 mmHg 92%
    21:00 -5°C° 0 mm 4 m/s 741 mmHg 93%
    22:00 -7°C° 0 mm 4 m/s 741 mmHg 93%
    23:00 -8°C° 0 mm 4 m/s 741 mmHg 94%
    Mostrar mais